Location: Bowden
(51.9167°N, 114.0333°W)
Time: 10:03:30
(UTC+00:00)

Envisat - Pass Details

Date: 08 December 2021
Orbit: 764 x 766 km, 98.2° (Epoch: 28 January)

Event Time Altitude Azimuth Distance (km) Brightness Sun altitude
Rises 11:22:45 0° 26° (NNE) 3,247 6.7 -36.9°
Reaches altitude 10° 11:25:47 10° 45° (NE) 2,314 6.0 -36.4°
Maximum altitude 11:29:17 18° 88° (E) 1,802 5.5 -35.9°
Drops below altitude 10° 11:32:44 10° 131° (SE) 2,302 5.9 -35.4°
Sets 11:35:44 0° 150° (SSE) 3,222 6.5 -34.9°
